ERS-1

Last updated on Sun Nov 02 2025 00:02:15 GMT+0000 (Coordinated Universal Time)

1 21574U 91050A 25305.44428224 .00000431 00000+0 15293-3 0 9999 2 21574 98.7931 315.4609 0031282 221.2785 138.6036 14.39316317797287
UTC large
Height (km)
Speed (km/s)
/
Latitude / Longitude
Inclination (degrees)
Orbital Period (minutes)
Azimuth
Elevation
Range (km)
Doppler Factor

Next 0 passes for location: London (51.5072 / 0.1276)

Sorry there are no passes over London.